Time,TemperatureF,DewpointF,PressureIn,WindDirection,WindDirectionDegrees,WindSpeedMPH,WindSpeedGustMPH,Humidity,HourlyPrecipIn,Conditions,Clouds,dailyrainin,SoftwareType,DateUTC
2013-05-18 00:01:00,44.0,42.0,29.87,ESE,107,0.0,0.0,93,0.00,,,0.60,,2013-05-18 06:01:00,
2013-05-18 00:11:00,44.0,42.0,29.87,ESE,107,0.0,0.0,93,0.00,,,0.60,,2013-05-18 06:11:00,
2013-05-18 00:22:00,44.0,42.0,29.87,ESE,107,0.0,0.0,93,0.00,,,0.60,,2013-05-18 06:22:00,
2013-05-18 00:31:00,44.0,42.0,29.87,ESE,107,0.0,0.0,93,0.00,,,0.60,,2013-05-18 06:31:00,
2013-05-18 00:42:00,44.0,42.0,29.87,ESE,107,0.0,0.0,93,0.00,,,0.60,,2013-05-18 06:42:00,
2013-05-18 00:52:00,44.0,42.0,29.86,ESE,107,0.0,0.0,93,0.00,,,0.60,,2013-05-18 06:52:00,
2013-05-18 01:01:00,44.0,42.0,29.86,ESE,107,0.0,0.0,93,0.00,,,0.60,,2013-05-18 07:01:00,
2013-05-18 01:11:00,44.0,42.0,29.86,ESE,107,0.0,0.0,93,0.00,,,0.60,,2013-05-18 07:11:00,
2013-05-18 01:21:00,44.0,42.0,29.86,ESE,107,0.0,0.0,94,0.00,,,0.60,,2013-05-18 07:21:00,
2013-05-18 01:31:00,44.0,42.0,29.86,ESE,107,0.0,0.0,94,0.00,,,0.60,,2013-05-18 07:31:00,
2013-05-18 01:42:00,44.0,42.0,29.86,ESE,107,0.0,0.0,94,0.00,,,0.60,,2013-05-18 07:42:00,
2013-05-18 01:52:00,44.0,42.0,29.86,ESE,107,0.0,0.0,94,0.00,,,0.60,,2013-05-18 07:52:00,
2013-05-18 02:01:00,44.0,42.0,29.86,ESE,107,0.0,0.0,94,0.00,,,0.60,,2013-05-18 08:01:00,
2013-05-18 02:11:00,44.0,42.0,29.86,ESE,107,0.0,0.0,94,0.00,,,0.60,,2013-05-18 08:11:00,
2013-05-18 02:21:00,44.0,42.0,29.86,ESE,107,0.0,1.0,94,0.00,,,0.60,,2013-05-18 08:21:00,
2013-05-18 02:32:00,44.0,42.0,29.86,ESE,107,0.0,1.0,94,0.00,,,0.60,,2013-05-18 08:32:00,
2013-05-18 02:42:00,44.0,42.0,29.86,ESE,107,0.0,1.0,94,0.00,,,0.60,,2013-05-18 08:42:00,
2013-05-18 02:52:00,44.0,42.0,29.87,ESE,107,0.0,0.0,94,0.00,,,0.60,,2013-05-18 08:52:00,
2013-05-18 03:02:00,44.0,42.0,29.87,ESE,107,0.0,0.0,94,0.00,,,0.60,,2013-05-18 09:02:00,
2013-05-18 03:11:00,44.0,42.0,29.87,ESE,107,0.0,0.0,94,0.00,,,0.60,,2013-05-18 09:11:00,
2013-05-18 03:21:00,44.0,42.0,29.87,ESE,107,0.0,0.0,94,0.00,,,0.60,,2013-05-18 09:21:00,
2013-05-18 03:32:00,44.0,42.0,29.87,ESE,107,0.0,0.0,94,0.00,,,0.60,,2013-05-18 09:32:00,
2013-05-18 03:43:00,44.0,42.0,29.87,ESE,107,0.0,0.0,94,0.00,,,0.60,,2013-05-18 09:43:00,
2013-05-18 03:53:00,43.0,41.0,29.86,ESE,107,0.0,0.0,94,0.01,,,0.61,,2013-05-18 09:53:00,
2013-05-18 04:02:00,43.0,41.0,29.86,ESE,107,0.0,0.0,94,0.01,,,0.61,,2013-05-18 10:02:00,
2013-05-18 04:12:00,43.0,41.0,29.86,ESE,107,0.0,0.0,94,0.01,,,0.61,,2013-05-18 10:12:00,
2013-05-18 04:22:00,43.0,41.0,29.87,ESE,107,0.0,0.0,94,0.01,,,0.61,,2013-05-18 10:22:00,
2013-05-18 04:33:00,43.0,41.0,29.87,ESE,107,0.0,0.0,94,0.01,,,0.61,,2013-05-18 10:33:00,
2013-05-18 04:42:00,43.0,41.0,29.87,ESE,107,0.0,0.0,94,0.01,,,0.61,,2013-05-18 10:42:00,
2013-05-18 04:52:00,43.0,41.0,29.88,ESE,107,0.0,0.0,94,0.00,,,0.61,,2013-05-18 10:52:00,
2013-05-18 05:02:00,43.0,41.0,29.88,ESE,107,0.0,0.0,94,0.00,,,0.61,,2013-05-18 11:02:00,
2013-05-18 05:12:00,43.0,41.0,29.88,ESE,107,0.0,0.0,94,0.00,,,0.61,,2013-05-18 11:12:00,
2013-05-18 05:22:00,43.0,41.0,29.87,ESE,107,0.0,0.0,94,0.00,,,0.61,,2013-05-18 11:22:00,
2013-05-18 05:33:00,43.0,41.0,29.87,ESE,107,0.0,0.0,94,0.00,,,0.61,,2013-05-18 11:33:00,
2013-05-18 05:42:00,43.0,41.0,29.87,ESE,107,0.0,0.0,94,0.00,,,0.61,,2013-05-18 11:42:00,
2013-05-18 05:52:00,44.0,42.0,29.86,ESE,107,0.0,0.0,94,0.00,,,0.61,,2013-05-18 11:52:00,
2013-05-18 06:01:00,44.0,42.0,29.86,ESE,107,0.0,0.0,94,0.00,,,0.61,,2013-05-18 12:01:00,
2013-05-18 06:12:00,44.0,42.0,29.86,ESE,107,0.0,0.0,94,0.00,,,0.61,,2013-05-18 12:12:00,
2013-05-18 06:22:00,44.0,42.0,29.87,ESE,107,0.0,0.0,94,0.00,,,0.61,,2013-05-18 12:22:00,
2013-05-18 06:33:00,44.0,42.0,29.87,ESE,107,0.0,0.0,94,0.00,,,0.61,,2013-05-18 12:33:00,
2013-05-18 06:42:00,44.0,42.0,29.87,ESE,107,0.0,0.0,94,0.00,,,0.61,,2013-05-18 12:42:00,
2013-05-18 06:52:00,44.0,42.0,29.88,ESE,107,0.0,0.0,94,0.00,,,0.61,,2013-05-18 12:52:00,
2013-05-18 07:01:00,44.0,42.0,29.88,ESE,107,0.0,0.0,94,0.00,,,0.61,,2013-05-18 13:01:00,
2013-05-18 07:11:00,44.0,42.0,29.88,ESE,107,0.0,0.0,94,0.00,,,0.61,,2013-05-18 13:11:00,
2013-05-18 07:21:00,44.0,42.0,29.89,ESE,107,0.0,0.0,94,0.00,,,0.61,,2013-05-18 13:21:00,
2013-05-18 07:32:00,44.0,42.0,29.89,ESE,107,0.0,0.0,94,0.00,,,0.61,,2013-05-18 13:32:00,
2013-05-18 07:43:00,44.0,42.0,29.89,ESE,107,0.0,0.0,94,0.00,,,0.61,,2013-05-18 13:43:00,
2013-05-18 07:52:00,45.0,43.0,29.89,ESE,107,0.0,0.0,94,0.00,,,0.61,,2013-05-18 13:52:00,
2013-05-18 08:03:00,45.0,43.0,29.89,ESE,107,0.0,0.0,94,0.00,,,0.61,,2013-05-18 14:03:00,
2013-05-18 08:12:00,45.0,43.0,29.89,ESE,107,0.0,0.0,94,0.00,,,0.61,,2013-05-18 14:12:00,
2013-05-18 08:22:00,45.0,43.0,29.89,ESE,107,0.0,0.0,94,0.00,,,0.61,,2013-05-18 14:22:00,
2013-05-18 08:32:00,45.0,43.0,29.89,ESE,107,0.0,0.0,94,0.00,,,0.61,,2013-05-18 14:32:00,
2013-05-18 08:42:00,45.0,43.0,29.89,ESE,107,0.0,0.0,94,0.00,,,0.61,,2013-05-18 14:42:00,
2013-05-18 08:54:00,45.0,43.0,29.90,ESE,107,0.0,0.0,94,0.00,,,0.61,,2013-05-18 14:54:00,
2013-05-18 09:03:00,45.0,43.0,29.90,ESE,107,0.0,0.0,94,0.00,,,0.61,,2013-05-18 15:03:00,
2013-05-18 09:13:00,45.0,43.0,29.90,ESE,107,0.0,0.0,94,0.00,,,0.61,,2013-05-18 15:13:00,
2013-05-18 09:23:00,47.0,45.0,29.90,ESE,107,0.0,0.0,94,0.00,,,0.61,,2013-05-18 15:23:00,
2013-05-18 09:33:00,47.0,45.0,29.90,ESE,107,0.0,0.0,94,0.00,,,0.61,,2013-05-18 15:33:00,
2013-05-18 09:43:00,47.0,45.0,29.90,ESE,107,0.0,0.0,94,0.00,,,0.61,,2013-05-18 15:43:00,
2013-05-18 09:53:00,48.0,46.0,29.89,ESE,107,0.0,0.0,94,0.00,,,0.61,,2013-05-18 15:53:00,
2013-05-18 10:02:00,48.0,46.0,29.89,ESE,107,0.0,0.0,94,0.00,,,0.61,,2013-05-18 16:02:00,
2013-05-18 10:12:00,48.0,46.0,29.89,ESE,107,0.0,0.0,94,0.00,,,0.61,,2013-05-18 16:12:00,
2013-05-18 10:22:00,49.0,47.0,29.91,ESE,107,0.0,0.0,94,0.00,,,0.61,,2013-05-18 16:22:00,
2013-05-18 10:32:00,49.0,47.0,29.91,ESE,107,0.0,0.0,94,0.00,,,0.61,,2013-05-18 16:32:00,
2013-05-18 10:42:00,49.0,47.0,29.91,ESE,107,0.0,0.0,94,0.00,,,0.61,,2013-05-18 16:42:00,
2013-05-18 10:52:00,50.0,46.0,29.88,ESE,107,0.0,0.0,85,0.00,,,0.61,,2013-05-18 16:52:00,
2013-05-18 11:02:00,50.0,46.0,29.88,ESE,107,0.0,0.0,85,0.00,,,0.61,,2013-05-18 17:02:00,
2013-05-18 11:12:00,50.0,46.0,29.88,ESE,107,0.0,0.0,85,0.00,,,0.61,,2013-05-18 17:12:00,
2013-05-18 11:22:00,51.0,46.0,29.88,ESE,107,0.0,1.0,83,0.00,,,0.61,,2013-05-18 17:22:00,
2013-05-18 11:32:00,51.0,46.0,29.88,ESE,107,0.0,1.0,83,0.00,,,0.61,,2013-05-18 17:32:00,
2013-05-18 11:42:00,51.0,46.0,29.88,ESE,107,0.0,1.0,83,0.00,,,0.61,,2013-05-18 17:42:00,
2013-05-18 11:52:00,53.0,45.0,29.89,South,175,1.0,4.0,75,0.00,,,0.61,,2013-05-18 17:52:00,
2013-05-18 12:01:00,53.0,45.0,29.89,South,175,1.0,4.0,75,0.00,,,0.61,,2013-05-18 18:01:00,
2013-05-18 12:12:00,53.0,45.0,29.89,South,175,1.0,4.0,75,0.00,,,0.61,,2013-05-18 18:12:00,
2013-05-18 12:21:00,53.0,48.0,29.89,NE,46,0.0,3.0,84,0.00,,,0.61,,2013-05-18 18:21:00,
2013-05-18 12:31:00,53.0,48.0,29.89,NE,46,0.0,3.0,84,0.00,,,0.61,,2013-05-18 18:31:00,
2013-05-18 12:42:00,53.0,48.0,29.89,NE,46,0.0,3.0,84,0.00,,,0.61,,2013-05-18 18:42:00,
2013-05-18 12:52:00,54.0,47.0,29.88,SE,134,1.0,3.0,76,0.01,,,0.62,,2013-05-18 18:52:00,
2013-05-18 13:01:00,54.0,47.0,29.88,SE,134,1.0,3.0,76,0.01,,,0.62,,2013-05-18 19:01:00,
2013-05-18 13:11:00,54.0,47.0,29.88,SE,134,1.0,3.0,76,0.01,,,0.62,,2013-05-18 19:11:00,
2013-05-18 13:21:00,53.0,46.0,29.89,SSE,158,1.0,3.0,77,0.01,,,0.62,,2013-05-18 19:21:00,
2013-05-18 13:31:00,53.0,46.0,29.89,SSE,158,1.0,3.0,77,0.01,,,0.62,,2013-05-18 19:31:00,
2013-05-18 13:42:00,53.0,46.0,29.89,SSE,158,1.0,3.0,77,0.01,,,0.62,,2013-05-18 19:42:00,
2013-05-18 13:52:00,53.0,44.0,29.89,ENE,67,0.0,3.0,72,0.00,,,0.62,,2013-05-18 19:52:00,
2013-05-18 14:01:00,53.0,44.0,29.89,ENE,67,0.0,3.0,72,0.00,,,0.62,,2013-05-18 20:01:00,
2013-05-18 14:11:00,53.0,44.0,29.89,ENE,67,0.0,3.0,72,0.00,,,0.62,,2013-05-18 20:11:00,
2013-05-18 14:21:00,54.0,44.0,29.87,ENE,62,0.0,2.0,70,0.00,,,0.62,,2013-05-18 20:21:00,
2013-05-18 14:32:00,54.0,44.0,29.87,ENE,62,0.0,2.0,70,0.00,,,0.62,,2013-05-18 20:32:00,
2013-05-18 14:42:00,54.0,44.0,29.87,ENE,62,0.0,2.0,70,0.00,,,0.62,,2013-05-18 20:42:00,
2013-05-18 14:52:00,54.0,46.0,29.88,SSE,164,1.0,5.0,74,0.00,,,0.60,,2013-05-18 20:52:00,
2013-05-18 15:01:00,54.0,46.0,29.88,SSE,164,1.0,5.0,74,0.00,,,0.60,,2013-05-18 21:01:00,
2013-05-18 15:11:00,54.0,46.0,29.88,SSE,164,1.0,5.0,74,0.00,,,0.60,,2013-05-18 21:11:00,
2013-05-18 15:21:00,49.0,46.0,29.90,ESE,109,0.0,0.0,88,0.08,,,0.68,,2013-05-18 21:21:00,
2013-05-18 15:32:00,49.0,46.0,29.90,ESE,109,0.0,0.0,88,0.08,,,0.68,,2013-05-18 21:32:00,
2013-05-18 15:43:00,49.0,46.0,29.90,ESE,109,0.0,0.0,88,0.08,,,0.68,,2013-05-18 21:43:00,
2013-05-18 15:53:00,49.0,46.0,29.90,ESE,109,0.0,0.0,91,0.10,,,0.70,,2013-05-18 21:53:00,
2013-05-18 16:02:00,49.0,46.0,29.90,ESE,109,0.0,0.0,91,0.10,,,0.70,,2013-05-18 22:02:00,
2013-05-18 16:12:00,49.0,46.0,29.91,ESE,109,0.0,0.0,90,0.06,,,0.74,,2013-05-18 22:12:00,
2013-05-18 16:23:00,49.0,46.0,29.91,ESE,109,0.0,0.0,90,0.06,,,0.74,,2013-05-18 22:23:00,
2013-05-18 16:32:00,49.0,46.0,29.91,ESE,109,0.0,0.0,90,0.06,,,0.74,,2013-05-18 22:32:00,
2013-05-18 16:42:00,49.0,46.0,29.90,ESE,109,0.0,0.0,91,0.06,,,0.76,,2013-05-18 22:42:00,
2013-05-18 16:52:00,49.0,46.0,29.90,ESE,109,0.0,0.0,91,0.06,,,0.76,,2013-05-18 22:52:00,
2013-05-18 17:01:00,49.0,46.0,29.90,ESE,109,0.0,0.0,91,0.06,,,0.76,,2013-05-18 23:01:00,
2013-05-18 17:11:00,49.0,46.0,29.90,ESE,109,0.0,0.0,91,0.06,,,0.76,,2013-05-18 23:11:00,
2013-05-18 17:21:00,50.0,47.0,29.90,ESE,109,0.0,2.0,89,0.02,,,0.76,,2013-05-18 23:21:00,
2013-05-18 17:32:00,50.0,47.0,29.90,ESE,109,0.0,2.0,89,0.02,,,0.76,,2013-05-18 23:32:00,
2013-05-18 17:42:00,50.0,47.0,29.90,ESE,109,0.0,2.0,89,0.02,,,0.76,,2013-05-18 23:42:00,
2013-05-18 17:53:00,49.0,46.0,29.93,East,80,0.0,4.0,88,0.00,,,0.76,,2013-05-18 23:53:00,
2013-05-18 18:01:00,49.0,46.0,29.93,East,80,0.0,4.0,88,0.00,,,0.76,,2013-05-19 00:01:00,
2013-05-18 18:11:00,49.0,46.0,29.93,East,80,0.0,4.0,88,0.00,,,0.76,,2013-05-19 00:11:00,
2013-05-18 18:21:00,47.0,44.0,29.95,East,96,0.0,0.0,89,0.05,,,0.81,,2013-05-19 00:21:00,
2013-05-18 18:31:00,47.0,44.0,29.95,East,96,0.0,0.0,89,0.05,,,0.81,,2013-05-19 00:31:00,
2013-05-18 18:42:00,47.0,44.0,29.95,East,96,0.0,0.0,89,0.05,,,0.81,,2013-05-19 00:42:00,
2013-05-18 18:52:00,47.0,45.0,29.96,East,96,0.0,2.0,92,0.12,,,0.61,,2013-05-19 00:52:00,
2013-05-18 19:01:00,47.0,45.0,29.96,East,96,0.0,2.0,92,0.12,,,0.61,,2013-05-19 01:01:00,
2013-05-18 19:11:00,47.0,45.0,29.96,East,96,0.0,2.0,92,0.12,,,0.61,,2013-05-19 01:11:00,
2013-05-18 19:21:00,47.0,45.0,29.96,East,96,0.0,0.0,92,0.11,,,0.65,,2013-05-19 01:21:00,
2013-05-18 19:32:00,47.0,45.0,29.96,East,96,0.0,0.0,92,0.11,,,0.65,,2013-05-19 01:32:00,
2013-05-18 19:42:00,47.0,45.0,29.96,East,96,0.0,0.0,92,0.11,,,0.65,,2013-05-19 01:42:00,
2013-05-18 19:52:00,47.0,45.0,29.95,East,96,0.0,0.0,92,0.04,,,0.47,,2013-05-19 01:52:00,
2013-05-18 20:01:00,47.0,45.0,29.95,East,96,0.0,0.0,92,0.04,,,0.47,,2013-05-19 02:01:00,
2013-05-18 20:11:00,47.0,45.0,29.95,East,96,0.0,0.0,92,0.04,,,0.47,,2013-05-19 02:11:00,
2013-05-18 20:21:00,47.0,45.0,29.96,North,5,0.0,0.0,92,0.00,,,0.47,,2013-05-19 02:21:00,
2013-05-18 20:31:00,47.0,45.0,29.96,North,5,0.0,0.0,92,0.00,,,0.47,,2013-05-19 02:31:00,
2013-05-18 20:42:00,47.0,45.0,29.96,North,5,0.0,0.0,92,0.00,,,0.47,,2013-05-19 02:42:00,
2013-05-18 20:52:00,47.0,45.0,29.96,North,5,0.0,1.0,92,0.01,,,0.40,,2013-05-19 02:52:00,
2013-05-18 21:01:00,47.0,45.0,29.96,North,5,0.0,1.0,92,0.01,,,0.40,,2013-05-19 03:01:00,
2013-05-18 21:11:00,47.0,45.0,29.96,North,5,0.0,1.0,92,0.01,,,0.40,,2013-05-19 03:11:00,
2013-05-18 21:21:00,47.0,45.0,29.97,North,5,0.0,0.0,93,0.01,,,0.40,,2013-05-19 03:21:00,
2013-05-18 21:32:00,47.0,45.0,29.97,North,5,0.0,0.0,93,0.01,,,0.40,,2013-05-19 03:32:00,
2013-05-18 21:43:00,47.0,45.0,29.97,North,5,0.0,0.0,93,0.01,,,0.40,,2013-05-19 03:43:00,
2013-05-18 21:53:00,46.0,44.0,29.98,North,5,0.0,0.0,93,0.00,,,0.36,,2013-05-19 03:53:00,
2013-05-18 22:02:00,46.0,44.0,29.98,North,5,0.0,0.0,93,0.00,,,0.36,,2013-05-19 04:02:00,
2013-05-18 22:12:00,46.0,44.0,29.98,North,5,0.0,0.0,93,0.00,,,0.36,,2013-05-19 04:12:00,
2013-05-18 22:23:00,46.0,44.0,29.98,North,5,0.0,0.0,93,0.00,,,0.36,,2013-05-19 04:23:00,
2013-05-18 22:33:00,46.0,44.0,29.98,North,5,0.0,0.0,93,0.00,,,0.36,,2013-05-19 04:33:00,
2013-05-18 22:42:00,46.0,44.0,29.98,North,5,0.0,0.0,93,0.00,,,0.36,,2013-05-19 04:42:00,
2013-05-18 22:52:00,45.0,43.0,30.01,North,5,0.0,1.0,93,0.00,,,0.36,,2013-05-19 04:52:00,
2013-05-18 23:02:00,45.0,43.0,30.01,North,5,0.0,1.0,93,0.00,,,0.36,,2013-05-19 05:02:00,
2013-05-18 23:12:00,45.0,43.0,30.01,North,5,0.0,1.0,93,0.00,,,0.36,,2013-05-19 05:12:00,
2013-05-18 23:21:00,44.0,42.0,29.99,North,5,0.0,1.0,92,0.00,,,0.36,,2013-05-19 05:21:00,
2013-05-18 23:32:00,44.0,42.0,29.99,North,5,0.0,1.0,92,0.00,,,0.36,,2013-05-19 05:32:00,
2013-05-18 23:42:00,43.0,41.0,30.01,North,5,0.0,0.0,92,0.00,,,0.35,,2013-05-19 05:42:00,
2013-05-18 23:51:00,43.0,41.0,30.01,North,5,0.0,0.0,92,0.00,,,0.35,,2013-05-19 05:51:00,